User: anonymous   Login
Location: Ostrava
(49.8330°N, 18.2830°E)
Time: 23:27:30
(UTC+02:00)
Language:

NOAA 19 - Orbit

View from above orbital plane
View from above orbital plane
View from above satellite
View from above satellite

Ground track
Ground track

The orbit data is extracted from the following two-line orbital elements,

1 33591U 09005A   15212.45580028  .00000113  00000-0  86539-4 0  9998
2 33591 098.9926 162.4475 0014962 048.1540 312.0906 14.11961354333734
Epoch (UTC): 31 July 2015 10:56:21
Eccentricity: 0.0014962
inclination: 98.9926°
perigee height: 842 km
apogee height: 863 km
right ascension of ascending node: 162.4475°
argument of perigee: 48.1540°
revolutions per day: 14.11961354
mean anomaly at epoch: 312.0906°
orbit number at epoch: 33373

The dashed part of the orbit path shows where the satellite is in the earth's shadow,  

DLR